Tehachapi, CA

9:52 PM PST on December 05, 2019 (GMT -0800)
Tehachapi Municipal

Weather History for KTSP - October, 2019

Change the Weather History Date:

Tuesday, October 15, 2019

  Actual Average Record
Temperature  
Mean Temperature 54 °F -  
Max Temperature 75 °F 70 °F 75 °F (2012)
Min Temperature 32 °F 40 °F 33 °F (2018)
Degree Days  
Heating Degree Days 12    
Growing Degree Days 4 (Base 50)    
Moisture  
Dew Point 20 °F    
Average Humidity 34    
Maximum Humidity 69    
Minimum Humidity 8    
Precipitation  
Precipitation 0.00 in - - ()
Sea Level Pressure  
Sea Level Pressure 30.16 in    
Wind  
Wind Speed 5 mph ()    
Max Wind Speed 18 mph    
Max Gust Speed 24 mph    
Visibility 9.1 miles    
Events      
Averages and records for this station are not official NWS values.
T = Trace of Precipitation, MM = Missing Value Source: Averaged Metar Reports

Daily Weather History Graph

Daily Weather History Graph

Search for Another Location

Airport or City:

Astronomy

Oct. 15, 2019 Rise Set
Actual Time 6:59 AM PDT 6:18 PM PDT
Civil Twilight 6:34 AM PDT 6:44 PM PDT
Nautical Twilight 6:04 AM PDT 7:13 PM PDT
Astronomical Twilight 5:35 AM PDT 7:43 PM PDT
Moon 7:44 PM PDT (10/15) 8:32 AM PDT (10/15)
Length of Visible Light 12h 10m
Length of Day
11h 19m
Waning Gibbous, 97% of the Moon is Illuminated
Oct 15
Waning Gibbous
Oct 21
Last Quarter
Oct 27
New
Nov 4
First Quarter
Nov 12
Full

Hourly Weather History & Observations

Time (PDT) Temp. Windchill Dew Point Humidity Pressure Visibility Wind Dir Wind Speed Gust Speed Precip Events Conditions
12:15 AM 37.4 °F - 23.0 °F 56% 30.13 in 9.0 mi Calm Calm - N/A   Clear
12:35 AM 37.4 °F 32.8 °F 24.8 °F 60% 30.13 in 9.0 mi SE 5.8 mph - N/A   Clear
12:55 AM 37.4 °F 33.8 °F 24.8 °F 60% 30.13 in 9.0 mi ESE 4.6 mph - N/A   Clear
1:35 AM 39.2 °F - 24.8 °F 56% 30.14 in 10.0 mi Calm Calm - N/A   Clear
1:55 AM 37.4 °F 33.8 °F 24.8 °F 60% 30.14 in 10.0 mi ESE 4.6 mph - N/A   Clear
2:15 AM 39.2 °F 35.9 °F 23.0 °F 52% 30.14 in 10.0 mi East 4.6 mph - N/A   Clear
2:35 AM 37.4 °F - 23.0 °F 56% 30.14 in 10.0 mi Calm Calm - N/A   Clear
2:55 AM 35.6 °F 31.7 °F 23.0 °F 60% 30.13 in 10.0 mi SE 4.6 mph - N/A   Clear
3:15 AM 35.6 °F 32.8 °F 23.0 °F 60% 30.13 in 9.0 mi SE 3.5 mph - N/A   Clear
3:55 AM 33.8 °F - 23.0 °F 65% 30.13 in 10.0 mi Calm Calm - N/A   Clear
4:15 AM 32.0 °F 26.4 °F 21.2 °F 64% 30.13 in 10.0 mi NE 5.8 mph - N/A   Clear
4:35 AM 35.6 °F - 23.0 °F 60% 30.13 in 10.0 mi Calm Calm - N/A   Clear
4:55 AM 32.0 °F 27.5 °F 23.0 °F 69% 30.14 in 10.0 mi ESE 4.6 mph - N/A   Clear
5:15 AM 33.8 °F - 23.0 °F 65% 30.14 in 10.0 mi Calm Calm - N/A   Clear
5:35 AM 35.6 °F 32.8 °F 23.0 °F 60% 30.15 in 10.0 mi East 3.5 mph - N/A   Clear
5:55 AM 33.8 °F 28.6 °F 23.0 °F 65% 30.15 in 10.0 mi ESE 5.8 mph - N/A   Clear
6:15 AM 35.6 °F - 21.2 °F 56% 30.15 in 10.0 mi Calm Calm - N/A   Clear
6:35 AM 33.8 °F - 21.2 °F 60% 30.15 in 10.0 mi Calm Calm - N/A   Clear
6:55 AM 33.8 °F - 21.2 °F 60% 30.16 in 9.0 mi Calm Calm - N/A   Clear
7:15 AM 33.8 °F - 21.2 °F 60% 30.17 in 9.0 mi Calm Calm - N/A   Clear
7:35 AM 35.6 °F - 21.2 °F 56% 30.17 in 8.0 mi Calm Calm - N/A   Clear
7:55 AM 39.2 °F - 21.2 °F 49% 30.18 in 8.0 mi Calm Calm - N/A   Clear
8:15 AM 44.6 °F 43.1 °F 21.2 °F 39% 30.18 in 9.0 mi SE 3.5 mph - N/A   Clear
8:35 AM 50.0 °F - 23.0 °F 35% 30.19 in 9.0 mi SE 5.8 mph - N/A   Clear
8:55 AM 57.2 °F - 23.0 °F 27% 30.19 in 9.0 mi SE 4.6 mph - N/A   Clear
9:15 AM 60.8 °F - 23.0 °F 23% 30.19 in 8.0 mi SE 5.8 mph - N/A   Clear
9:35 AM 66.2 °F - 17.6 °F 15% 30.20 in 9.0 mi ESE 8.1 mph - N/A   Clear
9:55 AM 68.0 °F - 17.6 °F 15% 30.20 in 8.0 mi ESE 8.1 mph - N/A   Clear
10:15 AM 71.6 °F - 14.0 °F 11% 30.19 in 10.0 mi SE 16.1 mph 19.6 mph N/A   Clear
10:35 AM 71.6 °F - 14.0 °F 11% 30.19 in 9.0 mi SE 16.1 mph 20.7 mph N/A   Clear
10:55 AM 71.6 °F - 14.0 °F 11% 30.19 in 10.0 mi SE 18.4 mph 21.9 mph N/A   Clear
11:15 AM 73.4 °F - 15.8 °F 11% 30.20 in 9.0 mi SE 15.0 mph 21.9 mph N/A   Clear
11:35 AM 73.4 °F - 17.6 °F 12% 30.19 in 9.0 mi ESE 16.1 mph 21.9 mph N/A   Clear
11:55 AM 73.4 °F - 17.6 °F 12% 30.19 in 9.0 mi SE 16.1 mph 24.2 mph N/A   Clear
12:15 PM 73.4 °F - 15.8 °F 11% 30.18 in 8.0 mi SE 15.0 mph 19.6 mph N/A   Clear
12:35 PM 73.4 °F - 14.0 °F 10% 30.18 in 9.0 mi SE 15.0 mph 21.9 mph N/A   Clear
12:55 PM 75.2 °F - 14.0 °F 10% 30.17 in 8.0 mi ESE 13.8 mph 21.9 mph N/A   Clear
1:15 PM 75.2 °F - 14.0 °F 10% 30.17 in 7.0 mi SE 15.0 mph 23.0 mph N/A   Clear
1:35 PM 75.2 °F - 14.0 °F 10% 30.16 in 7.0 mi SE 17.3 mph 20.7 mph N/A   Clear
1:55 PM 75.2 °F - 12.2 °F 9% 30.15 in 8.0 mi SE 12.7 mph 18.4 mph N/A   Clear
2:15 PM 75.2 °F - 10.4 °F 8% 30.14 in 7.0 mi SE 12.7 mph - N/A   Clear
2:35 PM 75.2 °F - 10.4 °F 8% 30.14 in 7.0 mi SE 11.5 mph 19.6 mph N/A   Clear
2:55 PM 75.2 °F - 12.2 °F 9% 30.14 in 7.0 mi ESE 11.5 mph - N/A   Clear
3:15 PM 75.2 °F - 10.4 °F 8% 30.14 in 8.0 mi SE 10.4 mph - N/A   Clear
3:35 PM 75.2 °F - 10.4 °F 8% 30.13 in 9.0 mi SE 9.2 mph 16.1 mph N/A   Clear
3:55 PM 75.2 °F - 10.4 °F 8% 30.13 in 9.0 mi ESE 8.1 mph - N/A   Clear
4:15 PM 75.2 °F - 10.4 °F 8% 30.13 in 9.0 mi SE 6.9 mph - N/A   Clear
4:35 PM 75.2 °F - 10.4 °F 8% 30.13 in 8.0 mi NNW 3.5 mph - N/A   Clear
4:55 PM 71.6 °F - 24.8 °F 17% 30.13 in 10.0 mi NW 11.5 mph - N/A   Clear
5:15 PM 68.0 °F - 24.8 °F 20% 30.13 in 9.0 mi NW 10.4 mph - N/A   Clear
5:35 PM 68.0 °F - 26.6 °F 21% 30.13 in 9.0 mi WNW 9.2 mph - N/A   Clear
5:55 PM 66.2 °F - 26.6 °F 23% 30.13 in 9.0 mi NW 6.9 mph - N/A   Clear
6:15 PM 64.4 °F - 26.6 °F 24% 30.13 in 9.0 mi West 3.5 mph - N/A   Clear
6:35 PM 60.8 °F - 26.6 °F 27% 30.13 in 9.0 mi WSW 3.5 mph - N/A   Clear
6:55 PM 59.0 °F - 26.6 °F 29% 30.13 in 7.0 mi Calm Calm - N/A   Clear
7:15 PM 50.0 °F - 24.8 °F 37% 30.14 in 9.0 mi Calm Calm - N/A   Clear
7:35 PM 51.8 °F - 24.8 °F 35% 30.15 in 9.0 mi Calm Calm - N/A   Clear
7:55 PM 50.0 °F - 23.0 °F 35% 30.15 in 10.0 mi Calm Calm - N/A   Clear
8:15 PM 48.2 °F - 24.8 °F 40% 30.16 in 9.0 mi South 3.5 mph - N/A   Clear
8:35 PM 50.0 °F - 24.8 °F 37% 30.16 in 9.0 mi Calm Calm - N/A   Clear
9:15 PM 46.4 °F 42.4 °F 24.8 °F 43% 30.16 in 9.0 mi ESE 8.1 mph - N/A   Clear
9:35 PM 44.6 °F - 23.0 °F 43% 30.16 in 10.0 mi Calm Calm - N/A   Clear
9:55 PM 44.6 °F - 23.0 °F 43% 30.17 in 10.0 mi Calm Calm - N/A   Clear
10:15 PM 42.8 °F - 19.4 °F 39% 30.18 in 10.0 mi Calm Calm - N/A   Clear
10:35 PM 44.6 °F 42.2 °F 19.4 °F 37% 30.18 in 10.0 mi ESE 4.6 mph - N/A   Clear
10:55 PM 41.0 °F - 17.6 °F 39% 30.18 in 10.0 mi Calm Calm - N/A   Clear
11:15 PM 41.0 °F 39.0 °F 17.6 °F 39% 30.18 in 10.0 mi ESE 3.5 mph - N/A   Clear
11:35 PM 39.2 °F 37.0 °F 17.6 °F 42% 30.18 in 10.0 mi SSE 3.5 mph - N/A   Clear
11:55 PM 41.0 °F 39.0 °F 15.8 °F 36% 30.18 in 10.0 mi ESE 3.5 mph - N/A   Clear